Weather History for Vicksburg, MS

Change the Weather History Date:

Wednesday, September 18, 2013

  Actual Average Record
Temperature  
Mean Temperature 79 °F 75 °F  
Max Temperature 93 °F 86 °F 99 °F (2010)
Min Temperature 65 °F 63 °F 42 °F (1981)
Degree Days  
Heating Degree Days 0 0  
Month to date heating degree days 0 0  
Since 1 July heating degree days 0 0  
Cooling Degree Days 14 10  
Month to date cooling degree days 288 212  
Year to date cooling degree days 1995 2001  
Growing Degree Days 28 (Base 50)    
Moisture  
Dew Point 68 °F    
Average Humidity 71    
Maximum Humidity 93    
Minimum Humidity 49    
Precipitation  
Precipitation 0.00 in 0.06 in 0.98 in (1949)
Month to date precipitation 0.78 1.97  
Year to date precipitation 48.93 38.54  
Sea Level Pressure  
Sea Level Pressure 30.05 in    
Wind  
Wind Speed 5 mph (ESE)    
Max Wind Speed 12 mph    
Max Gust Speed 23 mph    
Visibility 10 miles    
Events      
T = Trace of Precipitation, MM = Missing Value Source: NWS Daily Summary

Daily Weather History Graph

Daily Weather History Graph

Search for Another Location

Airport:

Trip Planner

Search our weather history database for the weather conditions in past years. The results will help you decide how hot, cold, wet, or windy it might be!

Date:

Astronomy

Sep. 18, 2013 Rise Set
Actual Time 6:49 AM CDT 7:05 PM CDT
Civil Twilight 6:25 AM CDT 7:30 PM CDT
Nautical Twilight 5:56 AM CDT 7:58 PM CDT
Astronomical Twilight 5:27 AM CDT 8:27 PM CDT
Moon 6:30 PM CDT (9/18) 5:53 AM CDT (9/18)
Length of Visible Light 13h 04m
Length of Day
12h 15m
Waxing Gibbous, 99% of the Moon is Illuminated
Sep 18
Waxing Gibbous
Sep 19
Full
Sep 26
Last Quarter
Oct 4
New
Oct 11
First Quarter

Hourly Weather History & Observations

Time (CDT) Temp. Heat Index Dew Point Humidity Pressure Visibility Wind Dir Wind Speed Gust Speed Precip Events Conditions
12:53 AM 68.0 °F - 64.9 °F 90% 30.05 in 10.0 mi ESE 3.5 mph - N/A   Clear
1:53 AM 68.0 °F - 64.9 °F 90% 30.05 in 10.0 mi Calm Calm - N/A   Clear
2:53 AM 72.0 °F - 64.0 °F 76% 30.04 in 10.0 mi South 4.6 mph - N/A   Clear
3:53 AM 66.9 °F - 64.9 °F 93% 30.05 in 9.0 mi Calm Calm - N/A   Clear
4:53 AM 68.0 °F - 64.0 °F 87% 30.04 in 10.0 mi Calm Calm - N/A   Clear
5:53 AM 66.0 °F - 64.0 °F 93% 30.05 in 9.0 mi Calm Calm - N/A   Clear
6:53 AM 64.9 °F - 63.0 °F 93% 30.07 in 9.0 mi Calm Calm - N/A   Clear
7:53 AM 71.1 °F - 64.0 °F 78% 30.08 in 10.0 mi Calm Calm - N/A   Clear
8:53 AM 75.9 °F - 66.0 °F 71% 30.09 in 10.0 mi ESE 8.1 mph - N/A   Clear
9:53 AM 81.0 °F 84.4 °F 70.0 °F 69% 30.10 in 10.0 mi SSE 8.1 mph - N/A   Clear
10:53 AM 84.9 °F 90.1 °F 71.1 °F 63% 30.10 in 10.0 mi Calm Calm - N/A   Clear
11:53 AM 86.0 °F 92.2 °F 72.0 °F 63% 30.09 in 10.0 mi SE 6.9 mph - N/A   Clear
12:53 PM 90.0 °F 96.4 °F 71.1 °F 54% 30.07 in 10.0 mi Variable 6.9 mph - N/A   Partly Cloudy
1:53 PM 91.9 °F 99.5 °F 72.0 °F 52% 30.04 in 10.0 mi East 5.8 mph - N/A   Partly Cloudy
2:53 PM 91.0 °F 95.6 °F 69.1 °F 48% 30.01 in 10.0 mi East 9.2 mph - N/A   Partly Cloudy
3:53 PM 91.9 °F 96.9 °F 69.1 °F 47% 30.00 in 10.0 mi East 10.4 mph - N/A   Partly Cloudy
4:53 PM 91.9 °F 96.9 °F 69.1 °F 47% 29.99 in 10.0 mi East 10.4 mph - N/A   Partly Cloudy
5:53 PM 89.1 °F 92.9 °F 68.0 °F 50% 29.99 in 10.0 mi East 8.1 mph - N/A   Scattered Clouds
6:53 PM 84.9 °F 90.1 °F 71.1 °F 63% 30.00 in 10.0 mi East 5.8 mph - N/A   Clear
7:53 PM 84.0 °F 88.4 °F 70.0 °F 63% 30.01 in 10.0 mi ESE 8.1 mph - N/A   Scattered Clouds
8:53 PM 82.9 °F 87.0 °F 70.0 °F 65% 30.03 in 10.0 mi ESE 6.9 mph - N/A   Clear
9:53 PM 82.0 °F 85.9 °F 70.0 °F 67% 30.04 in 10.0 mi ESE 8.1 mph - N/A   Clear
10:53 PM 80.1 °F 83.2 °F 70.0 °F 71% 30.05 in 10.0 mi SE 8.1 mph - N/A   Clear
11:53 PM 78.1 °F - 70.0 °F 76% 30.05 in 10.0 mi SE 6.9 mph - N/A   Clear